Charter Quote
Worldwide +1-877-727-2538 Call
Select Language Lang
SAFETY RELIABILITY EXPERIENCE

Safdarjung Airport (VIDD) - Jet Charter Services

AIRPORT INFORMATION
ICAOVIDD
LOCATIONDelhi (New Delhi), India
FACILITY TYPEAIRPORT
Runway Length (ft) Width (ft) Surface Type Elevation (ft)
30/12 4520 150 ASP 695.54098

At Paramount Business Jets you can hire chartered private jets to and from Safdarjung Airport with as little as 4 hours of notice. All flights booked via Paramount Business Jets are operated by certified direct air carriers that meet and exceed the FAA part 135 and 121 protocol or a foreign equivalent safety authority. Furthermore, Paramount Business Jets subscribes to ARGUS for their third party safety checks of operators, aircraft, and crews prior each and every flight to and from Safdarjung Airport and worldwide.

  • Quote a trip using Safdarjung Airport or call us 24/7 - 365 days a year at +1-877-727-2538.
Questions? Call +1-877-727-2538

METAR Weather Data at Safdarjung Airport, VIDD

STATIONVIDD
OBSERVEDMon Apr 22, 04:30 UTC
NOWMon Apr 22, 04:59 UTC
AGE29 min ago
WINDSSW at 1 mph
VISIBILITY3.2 miles
CONDITIONShaze
METARVIDD 220430Z 20001KT 2000 HZ NSC 32/19 Q1008 NOSIG

Call us on +1-877-727-2538 (24 Hours) to Hire a Private Jet or Get a Quick Quote.

Find Airports Near any Location

Processing
...